Regional Weather Roundup
Issued by NWS Charleston, SC

Current Version | Previous Version | Text Only | Print | Product List | Glossary Off
Versions: 1 2 3 4 5 6 7 8 9 10 11 12 13 14 15 16 17 18 19 20 21 22 23 24 25 26 27 28 29 30 31 32 33 34 35 36 37 38 39 40 41 42 43 44 45 46 47 48

000
ASUS42 KCHS 280227
RWRCHS

REGIONAL WEATHER ROUNDUP
NATIONAL WEATHER SERVICE CHARLESTON SC
1000 PM EDT MON MAR 27 2017

NOTE: "FAIR" INDICATES FEW OR NO CLOUDS BELOW 12,000 FEET WITH NO
SIGNIFICANT WEATHER AND/OR OBSTRUCTIONS TO VISIBILITY.

NOT ALL STATIONS ARE QUALITY CONTROLLED. USE DATA WITH CAUTION...
ESPECIALLY DEWPOINT OBSERVATIONS.

SCZ027-030-031-034>040-042>050-280300-
...SOUTHEAST SOUTH CAROLINA...

CITY           SKY/WX    TMP DP  RH WIND       PRES   REMARKS
N CHARLESTON   PTCLDY    64  58  80 S5        30.04R
WATERFRONT PRK   N/A     66  62  87 S6        30.02R
JOHNS ISLAND   FAIR      66  61  82 S3        30.05R
PINOPOLIS        N/A     68  59  73 VRB3      29.93R
MONCKS CORNER  FAIR      64  55  72 CALM      30.04R
SUMMERVILLE    FAIR      64  59  82 CALM      30.05R
BEAUFORT MCAS  PTCLDY    68  63  84 S6        30.04R
BEAUFORT ARPT  FAIR      66  61  82 S6        30.04R
HILTON HEAD IS PTCLDY    66  61  82 S6        30.06R
WALTERBORO     PTCLDY    63  57  82 SE3       30.04S
ALLENDALE      FAIR      68  59  73 SE7       30.01R

...SOUTHERN MIDLANDS AND PEE DEE...

CITY           SKY/WX    TMP DP  RH WIND       PRES   REMARKS
GEORGETOWN     FAIR      61  57  88 CALM      30.06R
KINGSTREE      FAIR      64  55  72 SE3       30.03R
ORANGEBURG     PTCLDY    68  59  73 S9        30.02R
BARNWELL       MOCLDY    70  63  78 S9        30.01R
AIKEN          FAIR      68  59  73 SE8       30.02R
MANNING        FAIR      64  57  77 S5        30.03R
COLUMBIA       MOCLDY    72  59  63 S9        29.97S
SUMTER         PTCLDY    69  59  71 S10       29.98R
FLORENCE       MOCLDY    67  59  75 S9        30.02R
MYRTLE BEACH   MOCLDY    66  59  77 S12       30.05R
N MYRTLE BEACH PTCLDY    67  59  75 S13       30.04S

$$

GAZ063-065-086>088-099>101-113>116-118-119-134>141-150-280300-
...SOUTHEAST GEORGIA...

CITY           SKY/WX    TMP DP  RH WIND       PRES   REMARKS
SAVANNAH ARPT  PTCLDY    66  58  75 S8        30.04R
HUNTER AAF     CLEAR     67  62  86 CALM      30.02R
FORT STEWART   PTCLDY    65  58  77 SE6       30.01R
STATESBORO     CLEAR     69  62  78 S7        30.01S
SYLVANIA       PTCLDY   N/A N/A N/A S5        30.03R
CLAXTON        FAIR     N/A N/A N/A CALM      30.02R

...CSRA...CENTRAL AND FAR SOUTHEAST GEORGIA...

CITY           SKY/WX    TMP DP  RH WIND       PRES   REMARKS
THOMSON        PTCLDY    66  57  72 W3        30.02R
AUGUSTA-BUSH   PTCLDY    75  62  64 S10       29.97R
AUGUSTA-DANIEL CLEAR     74  55  51 SE7       29.98R
SWAINSBORO     MOCLDY    72  61  68 SE6       30.01R
VIDALIA        CLOUDY    73  61  64 SE8       30.01R
EASTMAN        CLOUDY    67  52  58 CALM      30.01S
HAZLEHURST     FAIR      74  63  68 S7        30.00R
ALMA           PTCLDY    71  61  70 SE8       30.01R
WAYCROSS       MOCLDY    74  62  64 S8        30.02R
JESUP          CLOUDY    68  59  73 S5        30.04R
BAXLEY         CLOUDY    72  63  73 SE5       30.01R
BRUNSWICK      CLEAR     70  64  83 SE7       30.05R
SAINT SIMONS   CLEAR     67  62  84 SE7       30.04R

$$

SCZ027-028-034-036>038-045-046-048>050-GAZ119-141-280300-
...LAKE AND SUPPLEMENTAL COASTAL OBSERVATIONS...

STATION/POSITION TIME  TEMP    WIND        PRES    WAVE   SWELL
                       AIR SEA DIR/SP/G            HT/PER HT/PER/DIR
                 (UTC) (F)     (DEG/KT/KT) (MB)    (FT/S) (FT/S/D)
WINYAH BAY       0130   66     200/  4     1017.0R
LAKE MURRAY      0130   68     150/  4/  6 1014.2S
ACE BASIN NERRS  0130   65        CALM     1017.0R
FORT PULASKI     0200   67 64  190/  4/  6 1017.4
SAPELO ISLAND    0200   67     160/  7     1017.0

$$

ANZ835-935-AMZ111-154-330-350-352-354-370-450-454-472-280300-
...C-MAN AND BUOY OBSERVATIONS...

STATION/POSITION TIME  TEMP    WIND        PRES    WAVE   SWELL
                       AIR SEA DIR/SP/G            HT/PER HT/PER/DIR
                 (UTC) (F)     (DEG/KT/KT) (MB)    (FT/S) (FT/S/D)
BUOY 41004       0150   72 72  160/ 12/ 14 1016.5F   4/10   3/120/10
BUOY 41008       0150   65 63  170/  6/  8 1017.1R   3/10   3/120/10
FOLLY BEACH CMAN 0200   65     180/  5/  6 1017.8R
CAPERS NEARSHORE 0108   64     220/  6/  8 1016.6S
FRIPP NEARSHORE  0208   64 62  190/  6/ 10 1016.9R


STATION/POSITION TIME  TEMP    WIND        PRES    WAVE   SWELL
                       AIR SEA DIR/SP/G            HT/PER HT/PER/DIR
                 (UTC) (F)     (DEG/KT/KT) (MB)    (FT/S) (FT/S/D)
5E ST. MARYS GA  0200      68                N/A     3/11   2/110/11
FRYING PAN BUOY  0210   72 76  180/ 10/ 14 1017.5
BUOY 41025       0150   71 75  200/ 14/ 16 1017.8S   4/ 9   3/140/ 9
CAPE LOOKOUT NC  0200   66     170/  7/  8 1017.4R
BUOY 41002       0150   68 72  100/  8/ 10 1019.5R   6/10   5/110/10
BUOY 41010       NOT AVBL
ST AUGUSTINE FL  0200   69 71  140/  5/  6 1018.2R


$$




USA.gov is the U.S. government's official web portal to all federal, state and local government web resources and services.